[[{"header":{"parameterUnit":"m.s-1","parameterCategory":1,"la1":30.2991,"la2":30.254,"lo1":-89.0895,"lo2":-89.0444,"dy":0.0017,"dx":0.0017,"nx":28,"ny":28,"refTime":"2025-02-23T03:00:00:Z","depth":0,"parameterNumber":2,"parameterNumberName":"U-component_of_WINDS"},"data":[0,0,0,0,0,0,0,0,0,0,0,0,0,0,0,0,0,0,0,0,0,0,0,0,0,0,0,0,0,0,0,0,0,0,0,0,0,0,0,0,0,0,0,0,0,0,0,0,0,0,0,0,0,0,0,0,0,0,-2.5076,-2.5076,0,-2.5124,-2.5124,-2.5125,-2.5069,-2.5067,-2.5065,-2.5063,-2.5112,-2.5115,-2.5119,0,0,0,0,0,0,0,0,0,0,0,0,0,-2.4933,-2.4936,-2.5075,-2.5076,-2.5077,-2.5124,-2.5124,-2.5125,-2.5069,-2.5067,-2.5064,-2.5062,-2.5111,-2.5115,-2.5119,0,0,0,0,0,0,0,0,0,0,0,0,0,-2.499,-2.4937,-2.5075,-2.5055,-2.5053,-2.5124,-2.5124,-2.5125,-2.507,-2.5067,-2.5064,-2.5061,-2.511,-2.5115,-2.5119,-2.5213,0,0,-2.5134,-2.5137,0,0,0,0,0,0,0,0,-2.4986,-2.4995,-2.5057,-2.5056,-2.5055,-2.5087,-2.5092,-2.5155,-2.5071,-2.5064,-2.5063,-2.5059,-2.5106,-2.5111,-2.5127,-2.5215,-2.5217,-2.5135,-2.5138,-2.514,-2.5141,0,0,0,0,0,0,0,-2.4983,-2.4992,-2.5095,-2.5058,-2.5057,-2.5042,-2.5047,-2.5104,-2.5102,-2.5064,-2.506,-2.5067,-2.5105,-2.5123,-2.5128,-2.5218,-2.5135,-2.5139,-2.5142,-2.5144,-2.5382,-2.5385,0,0,0,0,0,0,-2.4981,-2.499,-2.5093,-2.5096,-2.5012,-2.5047,-2.5052,-2.508,-2.5101,-2.5102,-2.5069,-2.5064,-2.5116,-2.5122,-2.513,-2.5239,-2.514,-2.5144,-2.5147,-2.5379,-2.5383,-2.5386,0,0,0,0,0,0,-2.4978,-2.4991,-2.5091,-2.5042,-2.5053,-2.5053,-2.5085,-2.5083,-2.51,-2.5105,-2.5104,-2.5088,-2.5114,-2.5123,-2.5192,-2.524,-2.5147,-2.5151,-2.5375,-2.538,-2.5385,-2.5459,0,0,0,0,0,0,-2.4974,-2.499,-2.5026,-2.5043,-2.5056,-2.5153,-2.5088,-2.5086,-2.5109,-2.5102,-2.5122,-2.5123,-2.5112,-2.5185,-2.5197,-2.5245,-2.5155,-2.537,-2.5377,-2.5383,-2.5452,-2.5466,-2.5477,0,0,0,0,0,-2.497,-2.5046,-2.5028,-2.5041,-2.5101,-2.5156,-2.5164,-2.515,-2.5113,-2.5149,-2.5151,-2.5122,-2.5233,-2.5193,-2.5205,-2.5256,-2.5367,-2.5375,-2.5382,-2.5446,-2.5463,-2.5477,0,0,0,0,0,0,-2.5035,-2.5047,-2.5029,-2.5112,-2.5134,-2.5147,-2.5191,-2.5169,-2.5201,-2.5193,-2.5175,-2.518,-2.5253,-2.5261,-2.5216,-2.5346,-2.5294,-2.5304,-2.5338,-2.5354,-2.5366,-2.5362,-2.5159,0,0,0,0,0,-2.5059,-2.5103,-2.5111,-2.5184,-2.5196,-2.5192,-2.5216,-2.5203,-2.5224,-2.5233,-2.5241,-2.5263,-2.5302,-2.5328,-2.5365,-2.5453,-2.5455,-2.5493,-2.5506,-2.5517,-2.5526,-2.5571,-2.5587,-2.5411,-2.5411,-2.5411,0,0,-2.5109,-2.5121,-2.5151,-2.5198,-2.5213,-2.5258,-2.52,-2.5251,-2.5284,-2.5241,-2.5306,-2.5313,-2.5335,-2.5414,-2.5449,-2.5423,-2.5575,-2.5526,-2.5535,-2.5538,-2.5581,-2.5597,-2.5612,-2.5417,-2.5416,-2.5415,0,0,-2.5224,-2.5238,-2.53,-2.5316,-2.5339,-2.5335,-2.535,-2.5367,-2.5369,-2.5435,-2.5403,-2.5441,-2.551,-2.5527,-2.5545,-2.5664,-2.5637,-2.5676,-2.5742,-2.5787,-2.5801,-2.5813,-2.5854,-2.5869,-2.5685,-2.5686,-2.5686,0,-2.5283,-2.535,-2.5334,-2.5387,-2.5408,-2.537,-2.5432,-2.5448,-2.5482,-2.5497,-2.5468,-2.5552,-2.5565,-2.5646,-2.5675,-2.5691,-2.5706,-2.5674,-2.58,-2.5812,-2.5823,-2.5862,-2.5878,-2.569,-2.569,-2.5689,-2.5689,0,-2.5422,-2.5469,-2.5516,-2.5549,-2.5575,-2.5632,-2.5624,-2.5652,-2.5637,-2.5636,-2.5702,-2.5716,-2.5754,-2.5772,-2.5759,-2.5851,-2.5834,-2.5803,-2.575,-2.5845,-2.5881,-2.5896,-2.5696,-2.5695,-2.5694,-2.5692,0,0,-2.558,-2.5602,-2.5619,-2.5633,-2.5655,-2.5691,-2.5746,-2.5782,-2.5807,-2.5831,-2.5875,-2.5934,-2.5904,-2.5924,-2.5911,-2.5951,-2.6042,-2.5914,-2.5914,-2.5936,-2.6143,-2.6166,-2.6184,-2.6025,-2.6027,-2.603,-2.6141,0,-2.5693,-2.5788,-2.5774,-2.5865,-2.5907,-2.5871,-2.5918,-2.5937,-2.5937,-2.5972,-2.5973,-2.6014,-2.5973,-2.5984,-2.6021,-2.6023,-2.6083,-2.6015,-2.6065,-2.6067,-2.6059,-2.6203,-2.6228,-2.6332,-2.6155,-2.6157,-2.6159,0,-2.5839,-2.5868,-2.5963,-2.5977,-2.5994,-2.6037,-2.6068,-2.6103,-2.6122,-2.612,-2.6142,-2.6121,-2.6175,-2.6121,-2.6194,-2.6147,-2.6167,-2.6171,-2.6174,-2.6178,-2.6118,-2.6209,-2.6365,-2.638,-2.6182,-2.618,-2.6178,0,-2.5943,-2.6006,-2.607,-2.6083,-2.6102,-2.6132,-2.6141,-2.6157,-2.618,-2.6207,-2.6221,-2.6255,-2.6273,-2.6299,-2.6288,-2.6251,-2.6362,-2.6308,-2.6361,-2.6361,-2.6385,-2.6384,-2.6545,-2.64,-2.64,-2.6399,-2.6399,0,-2.6071,-2.613,-2.6117,-2.6157,-2.6221,-2.6204,-2.6268,-2.6273,-2.6287,-2.6326,-2.6298,-2.6335,-2.6318,-2.6354,-2.6346,-2.6406,-2.6415,-2.6413,-2.641,-2.6416,-2.6416,-2.6428,-2.642,-2.6403,-2.6402,-2.6402,-2.6401,0,-2.6198,-2.6192,-2.6259,-2.6271,-2.6275,-2.6322,-2.6331,-2.6367,-2.6365,-2.6415,-2.6425,-2.6422,-2.6462,-2.6454,-2.6499,-2.6493,-2.6568,-2.6557,-2.6562,-2.6558,-2.6611,-2.6605,-2.6785,-2.6807,-2.6648,-2.665,-2.6651,0,-2.628,-2.6325,-2.634,-2.6364,-2.6375,-2.6414,-2.6437,-2.6421,-2.6446,-2.647,-2.6503,-2.6541,-2.657,-2.6636,-2.6637,-2.6671,-2.6659,-2.672,-2.6664,-2.6667,-2.6659,-2.6656,-2.6659,-2.6731,-2.6732,-2.6734,-2.6735,0,-2.6425,-2.642,-2.6453,-2.6485,-2.6513,-2.6537,-2.6559,-2.658,-2.6566,-2.6595,-2.6636,-2.6658,-2.6703,-2.6741,-2.6771,-2.6779,-2.6755,-2.6753,-2.6766,-2.6772,-2.6772,-2.6771,-2.659,-2.6749,-2.6747,-2.6746,-2.6745,-2.6745,-2.6532,-2.6569,-2.6585,-2.6623,-2.6637,-2.6658,-2.6692,-2.6694,-2.6728,-2.6763,-2.6751,-2.6797,-2.6814,-2.6852,-2.6864,-2.6899,-2.6876,-2.6897,-2.6902,-2.6906,-2.6912,-2.6767,-2.6905,-2.6905,-2.6904,-2.6904,-2.6904,0,-2.6674,-2.6683,-2.6718,-2.6748,-2.6778,-2.6752,-2.6774,-2.68,-2.6841,-2.6859,-2.6888,-2.6933,-2.6969,-2.6972,-2.7006,-2.7033,-2.7022,-2.7042,-2.704,-2.7041,-2.6931,-2.6916,-2.705,-2.705,-2.705,-2.705,-2.705,-2.705,-2.6752,-2.6813,-2.6809,-2.6876,-2.6884,-2.6928,-2.6943,-2.6961,-2.6975,-2.7028,-2.7057,-2.7059,-2.707,-2.7104,-2.7135,-2.7135,-2.7148,-2.7172,-2.7167,-2.7064,-2.705,-2.7036,-2.7021,-2.7175,-2.7175,-2.7274,-2.7275,-2.7276]},{"header":{"parameterUnit":"m.s-1","parameterCategory":1,"la1":30.2991,"la2":30.254,"lo1":-89.0895,"lo2":-89.0444,"dy":0.0017,"dx":0.0017,"nx":28,"ny":28,"refTime":"2025-02-23T03:00:00:Z","depth":0,"parameterNumber":3,"parameterNumberName":"V-component_of_WINDS"},"data":[0,0,0,0,0,0,0,0,0,0,0,0,0,0,0,0,0,0,0,0,0,0,0,0,0,0,0,0,0,0,0,0,0,0,0,0,0,0,0,0,0,0,0,0,0,0,0,0,0,0,0,0,0,0,0,0,0,0,-2.381,-2.3809,0,-2.3768,-2.3768,-2.3768,-2.3711,-2.371,-2.3709,-2.3708,-2.3666,-2.3665,-2.3665,0,0,0,0,0,0,0,0,0,0,0,0,0,-2.3839,-2.3838,-2.381,-2.3809,-2.3809,-2.3769,-2.3768,-2.3767,-2.3711,-2.371,-2.3708,-2.3707,-2.3666,-2.3665,-2.3665,0,0,0,0,0,0,0,0,0,0,0,0,0,-2.3815,-2.3838,-2.381,-2.3775,-2.3772,-2.3769,-2.3768,-2.3767,-2.3711,-2.371,-2.3708,-2.3707,-2.3666,-2.3665,-2.3665,-2.3692,0,0,-2.3664,-2.3664,0,0,0,0,0,0,0,0,-2.3816,-2.3814,-2.3781,-2.3778,-2.3774,-2.3743,-2.3763,-2.3742,-2.3711,-2.3734,-2.3708,-2.3706,-2.3693,-2.369,-2.3685,-2.369,-2.3688,-2.3664,-2.3664,-2.3664,-2.3664,0,0,0,0,0,0,0,-2.3818,-2.3815,-2.3793,-2.3781,-2.3776,-2.3762,-2.3757,-2.3759,-2.3722,-2.3732,-2.3728,-2.3724,-2.369,-2.3686,-2.3684,-2.3688,-2.3664,-2.3664,-2.3664,-2.3663,-2.3711,-2.3712,0,0,0,0,0,0,-2.3825,-2.3817,-2.3795,-2.3792,-2.3792,-2.3763,-2.3757,-2.3755,-2.3722,-2.3715,-2.3725,-2.3721,-2.3687,-2.3684,-2.3682,-2.371,-2.3664,-2.3663,-2.3663,-2.3709,-2.3711,-2.3713,0,0,0,0,0,0,-2.3825,-2.3823,-2.3796,-2.3803,-2.3799,-2.3764,-2.3761,-2.3754,-2.375,-2.3716,-2.371,-2.3727,-2.3686,-2.3683,-2.369,-2.3708,-2.3663,-2.3663,-2.3708,-2.371,-2.3712,-2.3768,0,0,0,0,0,0,-2.3827,-2.3824,-2.3834,-2.3804,-2.3799,-2.3805,-2.3762,-2.3755,-2.3749,-2.3744,-2.3717,-2.3711,-2.3685,-2.3691,-2.3689,-2.3707,-2.3663,-2.3706,-2.3709,-2.3711,-2.3764,-2.3771,-2.3778,0,0,0,0,0,-2.3828,-2.3851,-2.3835,-2.3832,-2.381,-2.3806,-2.3803,-2.3772,-2.3751,-2.3761,-2.3739,-2.3712,-2.3707,-2.3692,-2.369,-2.3708,-2.3704,-2.3708,-2.3711,-2.3761,-2.377,-2.3778,0,0,0,0,0,0,-2.3884,-2.3847,-2.3828,-2.3842,-2.3828,-2.3796,-2.3807,-2.3783,-2.3774,-2.3769,-2.3732,-2.3726,-2.3737,-2.3723,-2.3707,-2.3731,-2.3701,-2.3704,-2.374,-2.3748,-2.3755,-2.3757,-2.3662,0,0,0,0,0,-2.3898,-2.3898,-2.3865,-2.3881,-2.3875,-2.3843,-2.384,-2.3817,-2.38,-2.3794,-2.3773,-2.3758,-2.3752,-2.375,-2.3743,-2.3762,-2.3754,-2.3773,-2.378,-2.3786,-2.3789,-2.3796,-2.3804,-2.3723,-2.3723,-2.3723,0,0,-2.3928,-2.3907,-2.3909,-2.3892,-2.3878,-2.3878,-2.3838,-2.384,-2.3839,-2.3794,-2.3799,-2.3783,-2.3764,-2.3776,-2.3781,-2.3765,-2.3809,-2.379,-2.3795,-2.3795,-2.38,-2.3808,-2.3815,-2.3726,-2.3725,-2.3725,0,0,-2.398,-2.3965,-2.3976,-2.3963,-2.3942,-2.3921,-2.3924,-2.3896,-2.3883,-2.3888,-2.3854,-2.3853,-2.3845,-2.3832,-2.3824,-2.3872,-2.3846,-2.3871,-2.3907,-2.3915,-2.3921,-2.3927,-2.3942,-2.3948,-2.3874,-2.3875,-2.3875,0,-2.4019,-2.4017,-2.3985,-2.3989,-2.3982,-2.3942,-2.3952,-2.3941,-2.3919,-2.3915,-2.3898,-2.3887,-2.3871,-2.3879,-2.3891,-2.3887,-2.3888,-2.3874,-2.3923,-2.3928,-2.3933,-2.3947,-2.3953,-2.3878,-2.3877,-2.3877,-2.3877,0,-2.4065,-2.4065,-2.4077,-2.4056,-2.4051,-2.4058,-2.4027,-2.4025,-2.4004,-2.3984,-2.3988,-2.3968,-2.3956,-2.3957,-2.3936,-2.3962,-2.3952,-2.393,-2.3899,-2.3944,-2.3957,-2.3962,-2.3882,-2.3881,-2.388,-2.3879,0,0,-2.4151,-2.4113,-2.4118,-2.4108,-2.4082,-2.4081,-2.4087,-2.4075,-2.4074,-2.406,-2.4063,-2.4058,-2.4036,-2.4028,-2.4005,-2.4012,-2.4049,-2.3988,-2.3987,-2.3999,-2.4075,-2.4091,-2.4098,-2.4033,-2.4034,-2.4034,-2.4076,0,-2.4198,-2.4204,-2.4175,-2.4189,-2.4188,-2.415,-2.4155,-2.4139,-2.4121,-2.4117,-2.4097,-2.4093,-2.4066,-2.406,-2.4065,-2.4044,-2.4064,-2.4041,-2.4034,-2.4034,-2.4038,-2.4105,-2.4122,-2.4163,-2.4081,-2.4082,-2.4083,0,-2.4252,-2.4242,-2.4256,-2.4229,-2.4227,-2.4232,-2.4218,-2.4215,-2.4197,-2.4183,-2.4174,-2.4147,-2.415,-2.4122,-2.4124,-2.4109,-2.4105,-2.4094,-2.4095,-2.4091,-2.406,-2.4102,-2.4175,-2.4181,-2.4091,-2.409,-2.409,0,-2.4311,-2.4301,-2.4307,-2.43,-2.4269,-2.4273,-2.4261,-2.4241,-2.4236,-2.4224,-2.422,-2.4209,-2.4203,-2.4195,-2.4166,-2.4148,-2.4172,-2.4141,-2.4159,-2.416,-2.4165,-2.4164,-2.4236,-2.4165,-2.4165,-2.4165,-2.4165,0,-2.4365,-2.4375,-2.4333,-2.4337,-2.4347,-2.4314,-2.4324,-2.4308,-2.4291,-2.429,-2.4257,-2.4258,-2.4221,-2.4217,-2.4194,-2.4199,-2.4197,-2.4185,-2.4179,-2.4187,-2.4188,-2.4182,-2.4178,-2.4166,-2.4166,-2.4166,-2.4165,0,-2.4432,-2.4405,-2.4409,-2.438,-2.4373,-2.4381,-2.4356,-2.4358,-2.4338,-2.4338,-2.4336,-2.4304,-2.4298,-2.4269,-2.4256,-2.4241,-2.4252,-2.4241,-2.4259,-2.4254,-2.4273,-2.4271,-2.4342,-2.4349,-2.4276,-2.4276,-2.4277,0,-2.4467,-2.4474,-2.4445,-2.4443,-2.4431,-2.4428,-2.4422,-2.439,-2.4386,-2.4365,-2.437,-2.4361,-2.4351,-2.4343,-2.4319,-2.4308,-2.4295,-2.4321,-2.4293,-2.4301,-2.4293,-2.4293,-2.4293,-2.4326,-2.4327,-2.4328,-2.4329,0,-2.4532,-2.4518,-2.4512,-2.45,-2.4494,-2.4484,-2.4471,-2.4471,-2.4435,-2.4432,-2.4425,-2.4418,-2.4404,-2.4395,-2.4381,-2.4367,-2.4342,-2.4338,-2.4341,-2.4349,-2.4358,-2.4352,-2.4273,-2.4336,-2.4335,-2.4335,-2.4334,-2.4334,-2.4583,-2.4587,-2.4567,-2.456,-2.4547,-2.4536,-2.4537,-2.4517,-2.4511,-2.4497,-2.4479,-2.4474,-2.4455,-2.4433,-2.4421,-2.4416,-2.4402,-2.4408,-2.4408,-2.441,-2.4413,-2.436,-2.4414,-2.4414,-2.4414,-2.4413,-2.4413,0,-2.4644,-2.463,-2.4624,-2.4608,-2.4603,-2.458,-2.4565,-2.4562,-2.4558,-2.4543,-2.4534,-2.4526,-2.4517,-2.4492,-2.4481,-2.4482,-2.447,-2.448,-2.4478,-2.4475,-2.4428,-2.4425,-2.449,-2.449,-2.449,-2.449,-2.449,-2.449,-2.4676,-2.468,-2.4664,-2.4662,-2.4647,-2.4643,-2.4636,-2.4625,-2.4612,-2.4605,-2.4597,-2.4581,-2.4562,-2.4549,-2.4539,-2.4532,-2.4529,-2.4542,-2.4531,-2.4486,-2.4479,-2.4472,-2.4469,-2.4542,-2.4542,-2.4579,-2.4579,-2.4579]}]]